Regional Weather Roundup
Issued by NWS Charleston, SC

Current Version | Previous Version | Text Only | Print | Product List | Glossary Off
Versions: 1 2 3 4 5 6 7 8 9 10 11 12 13 14 15 16 17 18 19 20 21 22 23 24 25 26 27 28 29 30 31 32 33 34 35 36 37 38 39 40 41 42 43 44 45 46 47 48 49 50

000
ASUS42 KCHS 171825
RWRCHS

REGIONAL WEATHER ROUNDUP
NATIONAL WEATHER SERVICE CHARLESTON SC
200 PM EDT THU APR 17 2014

NOTE: "FAIR" INDICATES FEW OR NO CLOUDS BELOW 12,000 FEET WITH NO
SIGNIFICANT WEATHER AND/OR OBSTRUCTIONS TO VISIBILITY.

NOT ALL STATIONS ARE QUALITY CONTROLLED BY THE NATIONAL
WEATHER SERVICE. USE DATA WITH CAUTION...ESPECIALLY
DEWPOINT OBSERVATIONS.

SCZ027-030-031-034>040-042>050-171900-
...SOUTH CAROLINA...

CITY           SKY/WX    TMP DP  RH WIND       PRES   REMARKS
N CHARLESTON   MOSUNNY   69  45  41 NE10      30.41F
6HR MIN TEMP:  45; 6HR MAX TEMP:  69;

WATERFRONT PRK   N/A     64 N/A N/A E12         N/A
FORT JOHNSON     N/A     61  48  63 E6        30.47S
MOUNT PLEASANT FAIR     N/A N/A N/A CALM      30.41S
JOHNS ISLAND   CLEAR     66  48  52 NE9       30.41F
PINOPOLIS        N/A     59  45  58 N10       30.36S
MONCKS CORNER  FAIR      64  50  59 N7        30.43F
SUMMERVILLE    FAIR      64  46  52 N7        30.41F
BEAUFORT MCAS  MOSUNNY   67  46  47 SE10      30.40F
6HR MIN TEMP:  47; 6HR MAX TEMP:  67;

BEAUFORT ARPT  FAIR      64  50  59 NE13      30.39F
HILTON HEAD IS PTSUNNY   63  50  63 NE9       30.41F
GEORGETOWN     NOT AVBL
WALTERBORO     CLEAR     68  46  45 E8G17     30.40F
ORANGEBURG     SUNNY     62  37  39 NE12      30.44F
6HR MIN TEMP:  42; 6HR MAX TEMP:  62;

BARNWELL       FAIR      64  34  32 NE9       30.42F
AIKEN          FAIR      63  34  34 E10G16    30.45F
MANNING        FAIR      64  19  17 E5        30.44F
KINGSTREE      NOT AVBL
COLUMBIA       SUNNY     62  30  29 NE6       30.44F
6HR MIN TEMP:  43; 6HR MAX TEMP:  63;

SUMTER         SUNNY     61  38  42 E9        30.44F
6HR MIN TEMP:  39; 6HR MAX TEMP:  61;

FLORENCE       SUNNY     64  42  44 E10       30.46F
6HR MIN TEMP:  40; 6HR MAX TEMP:  64;

MYRTLE BEACH   SUNNY     64  45  48 E12       30.43F
N MYRTLE BEACH MOSUNNY   66  44  45 E13G18    30.43F
6HR MIN TEMP:  42; 6HR MAX TEMP:  66;


$$

GAZ063-065-086>088-099>101-113>116-118-119-134-136>141-150-171900-
...GEORGIA...

CITY           SKY/WX    TMP DP  RH WIND       PRES   REMARKS
SAVANNAH ARPT  PTSUNNY   67  46  47 NE12      30.39F
6HR MIN TEMP:  48; 6HR MAX TEMP:  68;

HUNTER AAF     SUNNY     65  48  52 NE14      30.37F
6HR MIN TEMP:  49; 6HR MAX TEMP:  66;

FORT STEWART   CLOUDY    65  52  64 NE13      30.36F
6HR MIN TEMP:  49; 6HR MAX TEMP:  65;

STATESBORO     NOT AVBL
SYLVANIA       MOCLDY    68  40  36 E6        30.40F
CLAXTON        CLOUDY    66  48  52 NE9       30.39F
THOMSON        SUNNY     60  41  48 NE8       30.46F
AUGUSTA-BUSH   SUNNY     64  29  26 NE10      30.42F
6HR MIN TEMP:  43; 6HR MAX TEMP:  64;

AUGUSTA-DANIEL SUNNY     64  31  28 E8        30.42F
SWAINSBORO     MOCLDY    64  41  42 E7        30.39F
VIDALIA        CLOUDY    64  43  45 NE10      30.38F
ALMA           PTSUNNY   65  48  54 E10       30.35F
6HR MIN TEMP:  51; 6HR MAX TEMP:  66;

WAYCROSS       NOT AVBL
JESUP          CLOUDY    63  54  72 SE12G18   30.36F
BRUNSWICK      CLOUDY    59  55  88 NE12      30.38S
SAINT SIMONS   LGT RAIN  60  56  86 NE17G28   30.36F
6HR MIN TEMP:  57; 6HR MAX TEMP:  62; 6HR PCP: TRACE;


$$

SCZ027-028-034-036>038-045-046-048>050-GAZ119-141-171900-
...LAKE AND SUPPLEMENTAL COASTAL OBSERVATIONS...

STATION/POSITION TIME  TEMP    WIND        PRES    WAVE   SWELL
                       AIR SEA DIR/SP/G            HT/PER HT/PER/DIR
                 (UTC) (F)     (DEG/KT/KT) (MB)    (FT/S) (FT/S/D)
UPR LAKE MARION  NOT AVBL
WINYAH BAY       1800   58      60/ 11     1030.0S
LAKE MURRAY      1700   57      30/  6/ 10 1030.8F
ACE BASIN NERRS  1800   66      60/  5     1029.0F
FORT PULASKI     1800   59 59   40/ 12/ 16 1029.4F
SAPELO ISLAND    1800   60      40/ 14     1028.0S

$$

ANZ086-088-AMZ330-350-352-354-374-454-470-171900-
...C-MAN AND BUOY OBSERVATIONS...

STATION/POSITION TIME  TEMP    WIND        PRES    WAVE   SWELL
                       AIR SEA DIR/SP/G            HT/PER HT/PER/DIR
                 (UTC) (F)     (DEG/KT/KT) (MB)    (FT/S) (FT/S/D)
FOLLY BEACH CMAN 1800   58      60/ 15/ 17 1030.3F
BUOY 41004       NOT AVBL
BUOY 41008       1800   62 64   40/ 19/ 25 1027.6F   7/ 7   3/ 90/10
5E ST. MARYS GA  1800      64                N/A     7/ 7   2/ 80/12
FRYING PAN BUOY  1800   59 63   50/ 21/ 27 1029.5F   8/ 7   3/100/10
BUOY 41025       NOT AVBL
CAPE LOOKOUT NC  1800   58      10/ 19/ 24 1031.0F
BUOY 41002       NOT AVBL
BUOY 41010       1800   72 76   50/ 19/ 23 1023.7R   9/11   7/ 20/11
BUOY 41012       NOT AVBL
ST AUGUSTINE FL  1800   65      30/ 19/ 21 1025.7F


$$


USA.gov is the U.S. government's official web portal to all federal, state and local government web resources and services.